Regional Weather Roundup
Issued by NWS

Home | Current Version | Previous Version | Text Only | Print | Product List | Glossary On
Versions: 1 2 3 4 5 6 7 8 9 10 11 12 13 14 15 16 17 18 19 20 21 22 23 24 25 26 27 28 29 30 31 32 33 34 35 36 37 38 39 40 41 42 43 44 45 46 47 48 49 50
000
ASCA44 KEWX 280820
RWRMX

LATIN AMERICA AND CARIBBEAN REGIONAL WEATHER ROUNDUP
NATIONAL WEATHER SERVICE AUSTIN/SAN ANTONIO TX
200 AM CST TUE FEB 28 2017

NOTE: "FAIR" INDICATED FEW OR NO CLOUDS BELOW 12,000 FEET WITH NO
SIGNIFICANT WEATHER AND/OR OBSTRUCTIONS TO VISIBILITY.

BAJA CALIFORNIA

CITY           SKY/WX    TMP DP  RH WIND       PRES   REMARKS
MEXICALI       CLOUDY    57  55  94 NE3       29.79F
S.J. DEL CABO    N/A    N/A N/A N/A MISG        N/A
TIJUANA        RAIN      52  50  93 W6        29.92R VSB 1

NORTHWESTERN MEXICO

CITY           SKY/WX    TMP DP  RH WIND       PRES   REMARKS
HERMOSILLO     CLOUDY    64  46  52 CALM      29.94

NORTHEASTERN MEXICO

CITY           SKY/WX    TMP DP  RH WIND       PRES   REMARKS
MONCLOVA         N/A    N/A N/A N/A MISG        N/A
MONTERREY      CLEAR     68  64  88 E5        29.89S
REYNOSA          N/A    N/A N/A N/A MISG        N/A
CD. VICTORIA     N/A    N/A N/A N/A MISG        N/A

WESTERN MEXICO

CITY           SKY/WX    TMP DP  RH WIND       PRES   REMARKS
AGUASCALIENTES   N/A    N/A N/A N/A MISG        N/A
COLIMA           N/A    N/A N/A N/A MISG        N/A
GUADALAJARA    CLEAR     59  41  51 CALM      30.20S
MAZATLAN       CLEAR     59  55  88 CALM      29.98S
P. VALLARTA    CLEAR     64  59  82 CALM      29.97S
URUAPAN          N/A    N/A N/A N/A MISG        N/A
ZACATECAS        N/A    N/A N/A N/A MISG        N/A

CENTRAL MEXICO

CITY           SKY/WX    TMP DP  RH WIND       PRES   REMARKS
CUERNAVACA       N/A    N/A N/A N/A MISG        N/A
MEXICO CITY    CLEAR     63  37  39 W5        30.33F
MORELIA        CLEAR     50  34  53 CALM      30.25F
POZA RICA        N/A    N/A N/A N/A MISG        N/A
QUERETARO      CLEAR     54  37  54 NW5       30.30F
S. LUIS POTOSI CLEAR     57  36  44 S8        30.22S
TOLUCA         CLEAR     45  34  65 CALM      30.41F

SOUTHERN MEXICO

CITY           SKY/WX    TMP DP  RH WIND       PRES   REMARKS
ACAPULCO       PTCLDY    72  68  88 CALM      29.92F
B. DE HUATULCO   N/A    N/A N/A N/A MISG        N/A
P. ESCONDIDO     N/A    N/A N/A N/A MISG        N/A
VERACRUZ       CLEAR     73  72  94 W2        29.94F

YUCATAN PENINSULA

CITY           SKY/WX    TMP DP  RH WIND       PRES   REMARKS
CAMPECHE         N/A    N/A N/A N/A MISG        N/A
CANCUN         PTCLDY    77  72  83 E9        30.07F
CHETUMAL         N/A    N/A N/A N/A MISG        N/A
CD. DEL CARMEN   N/A    N/A N/A N/A MISG        N/A
COZUMEL        CLEAR     73  70  88 SE6       30.04F
MERIDA         CLEAR     75  70  83 E12       30.02F
MINATITLAN       N/A    N/A N/A N/A MISG        N/A
TAPACHULA      PTCLDY    75  70  83 CALM      29.92F

CENTRAL AMERICA

CITY           SKY/WX    TMP DP  RH WIND       PRES   REMARKS

CARIBBEAN

CITY           SKY/WX    TMP DP  RH WIND       PRES   REMARKS
ARUBA          PTCLDY    79  72  78 E15       29.94S
KINGSTON       PTCLDY    77  68  73 N14       30.00F
NASSAU         PTCLDY    77  68  73 NE8       30.25F
SAN JUAN       MOCLDY    73  70  88 E9        30.07S
SANTO DOMINGO  PTCLDY    72  68  88 N5        30.06S
ST. CROIX      CLEAR     75  70  83 E10       30.05
ST. MAARTEN    PTCLDY    77  70  78 E12       30.03S
ST. THOMAS     CLEAR     75  70  83 NE10      30.05

$$





USA.gov is the U.S. government's official web portal to all federal, state and local government web resources and services.